TimeMST,TemperatureF,Dew PointF,Humidity,Sea Level PressureIn,VisibilityMPH,Wind Direction,Wind SpeedMPH,Gust SpeedMPH,PrecipitationIn,Events,Conditions,WindDirDegrees,DateUTC
12:53 AM,-2.0,-8.0,76,30.22,9.0,NE,5.8,-,N/A,,Overcast,40,2013-12-08 07:53:00
1:53 AM,-2.9,-8.0,79,30.21,9.0,North,5.8,-,N/A,,Overcast,360,2013-12-08 08:53:00
2:53 AM,-4.0,-9.0,79,30.20,5.0,North,3.5,-,N/A,,Haze,10,2013-12-08 09:53:00
3:53 AM,-4.0,-9.0,79,30.18,7.0,Calm,Calm,-,0.00,,Overcast,0,2013-12-08 10:53:00
4:53 AM,-5.1,-9.9,80,30.18,6.0,NW,3.5,-,0.00,,Haze,310,2013-12-08 11:53:00
5:53 AM,-2.9,-9.0,75,30.17,5.0,Calm,Calm,-,0.00,Snow,Light Snow,0,2013-12-08 12:53:00
6:11 AM,-2.2,-9.4,71,29.90,2.0,WNW,3.5,-,0.00,Snow,Light Snow,290,2013-12-08 13:11:00
6:41 AM,-2.2,-7.6,78,29.89,3.0,WSW,3.5,-,0.00,Snow,Light Snow,250,2013-12-08 13:41:00
6:53 AM,-2.9,-8.0,79,30.17,4.0,WSW,3.5,-,0.00,Snow,Light Snow,240,2013-12-08 13:53:00
7:53 AM,-4.0,-9.0,79,30.19,7.0,SW,5.8,-,0.00,,Overcast,230,2013-12-08 14:53:00
8:53 AM,-2.0,-8.0,76,30.19,7.0,WSW,5.8,-,N/A,,Overcast,250,2013-12-08 15:53:00
9:53 AM,-0.9,-8.0,72,30.20,10.0,SW,8.1,-,0.00,,Mostly Cloudy,230,2013-12-08 16:53:00
10:53 AM,1.9,-9.0,60,30.18,10.0,West,13.8,-,N/A,,Partly Cloudy,270,2013-12-08 17:53:00
11:23 AM,1.4,-7.6,66,29.92,2.5,West,15.0,-,N/A,,Haze,280,2013-12-08 18:23:00
11:32 AM,1.4,-7.6,66,29.92,10.0,West,16.1,-,N/A,,Clear,280,2013-12-08 18:32:00
11:53 AM,3.9,-5.1,66,30.17,10.0,WNW,16.1,-,N/A,,Scattered Clouds,290,2013-12-08 18:53:00
12:53 PM,3.9,-6.0,64,30.17,10.0,WNW,16.1,-,N/A,,Clear,290,2013-12-08 19:53:00
1:53 PM,6.1,-5.1,60,30.17,10.0,NW,9.2,-,N/A,,Clear,310,2013-12-08 20:53:00
2:53 PM,7.0,-2.9,64,30.19,10.0,WNW,8.1,-,N/A,,Clear,290,2013-12-08 21:53:00
3:53 PM,7.0,-4.0,61,30.21,10.0,NW,9.2,-,N/A,,Clear,320,2013-12-08 22:53:00
4:53 PM,6.1,-6.0,58,30.25,10.0,Calm,Calm,-,N/A,,Clear,0,2013-12-08 23:53:00
5:53 PM,3.9,-6.0,64,30.26,10.0,WSW,4.6,-,N/A,,Partly Cloudy,250,2013-12-09 00:53:00
6:26 PM,3.2,-5.8,66,30.01,10.0,West,17.3,-,N/A,,Clear,260,2013-12-09 01:26:00
6:53 PM,1.9,-7.1,66,30.31,10.0,West,16.1,-,N/A,,Clear,260,2013-12-09 01:53:00
7:53 PM,3.0,-7.1,63,30.32,10.0,WSW,13.8,-,N/A,,Scattered Clouds,250,2013-12-09 02:53:00
8:53 PM,3.0,-7.1,63,30.33,10.0,West,16.1,-,N/A,,Overcast,270,2013-12-09 03:53:00
9:53 PM,3.0,-6.0,66,30.35,10.0,West,11.5,-,N/A,,Scattered Clouds,270,2013-12-09 04:53:00
10:53 PM,5.0,-2.9,70,30.35,10.0,WNW,18.4,21.9,N/A,,Mostly Cloudy,300,2013-12-09 05:53:00
11:53 PM,3.9,-4.0,70,30.34,10.0,West,12.7,-,N/A,,Clear,260,2013-12-09 06:53:00